sat.trackr.live / text

‹ back to catalog

STARLINK-3657

NORAD 51990 · 2022-025AL

PAYLOAD ACTIVE UNKNOWN

§ Identity

Operator
Country
US
Launch date
2022-03-09
Launch site
AFETR
Launch vehicle
Mass (kg)
RCS (m²)

Purposes: comms

External: N2YO · Heavens-Above · Gunter

§ Orbital elements

Epoch: 2026-09-20T03:55:07.118976Z

Period
93.81 min
Inclination
53.1602°
Eccentricity
0.0002853
Mean motion
15.35089362 rev/d
Perigee alt
458.7 km
Apogee alt
462.6 km
Semi-major
6,838.8 km
B*
-1.1279e-3
RAAN
214.9428°
Arg perigee
110.9973°
Mean anomaly
249.1335°
Rev number
25,084

§ Raw data

STARLINK-36571 51990U 22025AL  26263.16327684 -.00039137  00000+0 -11279-2 0  99972 51990  53.1602 214.9428 0002853 110.9973 249.1335 15.35089362250849

JSON: /api/v1/satellites/51990 · /tle

For live sub-satellite position, see the globe view (requires WebGL).

§ Visibility from observer

Set your observer location to see the next 7 days of passes ≥ 10°. The values pass through the URL so the page stays shareable.

No JS? Fill the form by hand. The geolocation button needs JavaScript.